Content
SEND FEEDBACK

Daily
Averages
Monthly
Summary
United States of America

KLAWOCK, ALASKA


Home > North America > United States > Alaska
Elevation: 10 feet     Latitude: 55 33N     Longitude: 133 06W

WEATHER
 
SELECT A DAY
Number of Records: 216,385;   Date Range: 8/8/96 - 7/23/14
 
SHARE

PRINT THIS DATA

[ ← Previous Day ]
WEATHER ALMANAC - JANUARY 31, 2013
[ Next Day → ]
[ °C ]   °F
Weather ElementAverageHighLow
Temperature42.8 °F44.6 °F (6:24 am)39.9 °F (10:53 pm)
Dewpoint40.5 °F42.8 °F (9:10 am)37.9 °F (8:53 pm)
Humidity91.6 %100 % (9:16 am)85 % (8:53 pm)
Barometer29.99 in30.16 in (11:53 pm)29.83 in (1:53 am)
Wind Speed4.7 mph9.2 mph (9:16 am)
Wind Gust16.1 mph (1:06 pm)
Weather ElementAverage
Visibility7.7 mi
Wind DirectionSSE (155.9 °)

Weather ElementTotal
Precipitation0.06 in
Heating Degree Days22.8 (Base 65)
Averaged from 41 records on January 31, 2013
WEATHER CONDITIONS BREAKOUT
WIND DIRECTION BREAKOUT
WEATHER BY HOUR - JANUARY 31, 2013
[ °C ]   °F
Local TimeTemperatureDewpointHumidityBarometerVisibilityWind DirectionWind SpeedGust SpeedPrecipitationEventsConditions
1:53 AM41.0 °F39.0 °F93 %29.83 in10.0 miCalm0.00 inRainLight Rain
2:21 AM42.8 °F39.2 °F87 %29.83 in10.0 miENE (70°)3.5 mph0.00 inOvercast
2:30 AM42.8 °F39.2 °F87 %29.83 in10.0 miNNE (30°)3.5 mph0.00 inOvercast
3:53 AM42.1 °F39.9 °F92 %29.84 in10.0 miCalm0.00 inRainLight Rain
4:53 AM44.1 °F41.0 °F89 %29.85 in10.0 miSouth (170°)3.5 mph0.00 inOvercast
5:53 AM44.1 °F41.0 °F89 %29.86 in10.0 miSSE (160°)5.8 mphOvercast
6:24 AM44.6 °F41.0 °F87 %29.87 in10.0 miSSE (160°)5.8 mphOvercast
6:48 AM44.6 °F41.0 °F87 %29.87 in10.0 miSouth (170°)6.9 mphOvercast
6:53 AM44.1 °F41.0 °F89 %29.87 in10.0 miSSE (160°)4.6 mphOvercast
7:53 AM44.1 °F41.0 °F89 %29.90 in10.0 miVariable3.5 mphOvercast
8:53 AM44.1 °F42.1 °F93 %29.91 in10.0 miVariable3.5 mphOvercast
9:10 AM44.6 °F42.8 °F93 %29.92 in5.0 miSW (230°)4.6 mph0.00 inRainLight Rain
9:16 AM42.8 °F42.8 °F100 %29.92 in1.8 miSW (230°)9.2 mph0.01 inRainLight Rain
9:34 AM42.8 °F41.0 °F93 %29.93 in3.0 miSSW (210°)4.6 mph0.01 inRainLight Rain
9:53 AM43.0 °F41.0 °F93 %29.95 in5.0 miSW (230°)5.8 mph0.01 inOvercast
10:53 AM43.0 °F42.1 °F97 %29.97 in10.0 miSSW (210°)3.5 mphOvercast
11:53 AM43.0 °F42.1 °F97 %29.99 in10.0 miWSW (240°)4.6 mphOvercast
12:43 PM42.8 °F41.0 °F93 %30.00 in3.0 miSW (220°)8.1 mph0.00 inRainLight Rain
12:53 PM43.0 °F41.0 °F93 %30.01 in5.0 miSSW (210°)8.1 mph0.00 inOvercast
1:00 PM42.8 °F41.0 °F93 %30.01 in2.5 miSW (220°)9.2 mph0.01 inRainLight Rain
1:06 PM42.8 °F41.0 °F93 %30.01 in3.0 miSSW (210°)6.9 mph16.1 mph0.01 inRainLight Rain
1:53 PM43.0 °F41.0 °F93 %30.03 in10.0 miSSW (200°)4.6 mph0.01 inOvercast
2:34 PM42.8 °F41.0 °F93 %30.04 in2.5 miSW (220°)6.9 mphOvercast
2:43 PM42.8 °F41.0 °F93 %30.04 in2.0 miSSW (210°)5.8 mphOvercast
2:45 PM42.8 °F41.0 °F93 %30.04 in1.8 miSSW (210°)5.8 mphOvercast
2:51 PM42.8 °F41.0 °F93 %30.05 in2.5 miSSW (200°)6.9 mphOvercast
2:52 PM43.0 °F41.0 °F93 %30.05 in3.0 miSSW (200°)6.9 mphOvercast
2:56 PM42.8 °F41.0 °F93 %30.05 in7.0 miSSW (200°)5.8 mphOvercast
3:10 PM42.8 °F41.0 °F93 %30.05 in10.0 miVariable5.8 mphOvercast
3:17 PM42.8 °F41.0 °F93 %30.05 in10.0 miSSW (200°)6.9 mphOvercast
3:53 PM43.0 °F39.9 °F89 %30.05 in10.0 miSSW (210°)4.6 mphOvercast
4:21 PM42.8 °F41.0 °F93 %30.06 in10.0 miSSW (210°)4.6 mphOvercast
4:53 PM42.1 °F39.9 °F92 %30.06 in10.0 miSSW (210°)5.8 mphOvercast
5:53 PM42.1 °F39.0 °F89 %30.08 in10.0 miSSW (210°)4.6 mphOvercast
6:42 PM42.8 °F39.2 °F87 %30.09 in10.0 miSW (220°)3.5 mphOvercast
6:53 PM42.1 °F39.0 °F89 %30.10 in10.0 miSSW (200°)3.5 mphOvercast
7:53 PM41.0 °F39.0 °F93 %30.11 in10.0 miSSW (210°)3.5 mphOvercast
8:53 PM42.1 °F37.9 °F85 %30.11 in10.0 miSSE (150°)3.5 mphOvercast
9:53 PM42.1 °F37.9 °F85 %30.12 in10.0 miCalmOvercast
10:53 PM39.9 °F37.9 °F93 %30.13 in10.0 miCalmOvercast
11:53 PM39.9 °F39.0 °F97 %30.16 in10.0 miCalm0.00 inRainLight Rain
Hourly data recorded from PAKW, located miles away from Klawock, Alaska







STORIES FROM OUR PARTNERS